Location: ??????
(56.0120°N, 39.1740°E)
Time: 17:24:54
(UTC+00:00)

Cosmos 1975 Rocket - Pass Details

Date: 14 April 2026
Orbit: 597 x 626 km, 82.5° (Epoch: 16 May)

Event Time Altitude Azimuth Distance (km) Brightness Sun altitude
Rises 20:05:14 0° 344° (NNW) 2,928 8.0 -22.4°
Reaches altitude 10° 20:07:32 10° 339° (NNW) 2,015 6.8 -22.5°
Maximum altitude 20:11:50 48° 266° (W) 824 3.7 -22.7°
Enters shadow 20:12:35 43° 234° (SW) 883 3.6 -22.7°
